Wind_Speed
60 61 61 62 62 63 64 67 69 71 73 75 77 79 81 81 82 83 85 88 90 89 88 87 89 90 90 91 90 88 85 80 76 73 70 66 58 58 54 54 52 45 50
64 67 68 67 68 69 69 70 72 72 74 75 77 80 83 85 87 87 88 88 89 91 92 93 95 96 97 96 95 95 92 88 86 83 73 63 64 53 55 64 66 56 55
70 71 72 74 76 76 77 77 78 80 81 81 81 82 82 83 86 88 90 91 93 96 97 98 98 100 102 104 103 101 99 97 96 93 88 77 63 67 54 46 57 65 62
76 76 78 79 81 81 81 82 84 85 85 88 89 89 86 85 86 89 92 94 97 100 101 102 104 106 107 108 109 109 107 105 102 103 97 91 84 69 71 65 44 65 62
82 82 82 85 87 87 88 89 89 89 91 92 94 93 89 86 86 88 91 96 101 105 108 112 114 115 115 113 113 113 112 112 111 110 107 99 96 92 77 79 71 76 66
86 86 89 90 89 92 94 97 95 97 96 99 97 93 89 89 91 92 96 101 105 110 114 114 116 115 116 117 118 119 118 120 117 114 112 110 100 98 92 76 87 86 73
89 93 95 95 97 98 101 101 102 101 100 100 96 91 91 93 95 98 102 105 107 108 110 109 108 107 104 104 103 103 105 107 106 103 108 112 107 100 97 87 84 85 85
96 97 99 101 103 105 106 107 105 103 102 101 96 95 95 97 99 100 102 101 97 94 93 93 93 96 96 95 93 92 91 93 95 91 91 97 100 100 98 98 86 87 92
99 100 102 104 106 108 109 111 108 106 106 101 97 97 98 99 100 97 91 87 86 83 80 80 82 82 83 84 84 84 85 84 85 85 82 81 91 94 92 96 93 90 95
102 104 106 107 110 110 112 113 112 110 107 99 97 98 100 100 94 89 86 82 75 75 75 73 72 69 71 71 72 75 76 74 73 75 78 75 83 88 88 91 93 95 100
108 110 111 113 113 114 116 115 113 111 102 97 97 99 98 91 87 85 79 71 70 72 72 68 64 60 60 61 64 67 68 68 67 66 67 71 73 84 88 92 97 99 102
111 113 114 116 117 119 115 112 114 103 98 97 96 93 88 84 84 78 72 68 71 71 66 64 63 60 56 55 56 60 62 62 61 61 60 64 68 78 90 93 97 99 101
116 118 118 119 119 116 114 112 101 99 95 91 89 86 83 82 76 72 71 69 68 65 62 61 60 57 54 53 51 51 52 55 56 55 55 59 66 73 86 88 95 97 99
120 120 121 119 114 113 107 102 99 94 90 86 85 82 82 76 73 72 72 67 63 61 60 59 57 54 52 50 48 48 47 48 49 50 51 55 62 70 83 86 92 96 98
122 121 118 113 109 103 101 99 93 88 85 83 82 81 76 74 74 74 71 67 59 56 57 57 54 51 47 47 46 46 43 42 42 44 48 51 56 67 82 86 93 97 103
121 115 110 106 101 98 98 91 86 83 80 80 79 76 74 74 73 73 70 65 58 53 54 54 52 49 44 44 43 44 42 40 39 40 44 48 52 60 76 85 92 101 105
111 105 103 98 95 98 88 82 80 79 79 76 74 75 75 74 71 69 66 63 60 58 53 53 51 47 44 42 41 42 42 39 36 38 43 46 50 56 71 84 93 94 99
101 97 93 94 96 86 81 78 77 77 74 73 74 75 74 70 68 67 65 64 62 60 54 51 49 46 44 40 40 39 41 39 35 37 41 44 48 50 61 77 90 95 87
92 91 94 93 84 80 77 77 75 72 72 73 74 72 71 71 69 66 64 61 61 59 56 48 49 46 43 40 39 38 38 38 34 36 39 41 46 50 58 67 77 90 98
91 94 92 83 79 77 76 73 71 71 73 72 70 71 69 66 64 61 58 56 54 53 52 46 47 45 42 40 38 38 38 37 34 36 37 40 44 50 53 57 66 80 92
93 89 80 76 75 73 70 69 70 71 70 70 69 66 62 61 59 57 54 52 50 49 47 43 42 44 42 39 38 38 39 36 35 38 39 42 45 50 53 55 59 67 72
85 77 74 72 70 68 67 70 68 67 68 67 64 61 60 59 58 56 52 50 48 48 46 43 38 41 42 40 38 39 40 38 38 40 43 44 46 49 51 54 60 65 70
73 70 69 66 66 66 67 65 66 66 65 62 61 61 59 57 55 53 52 49 48 47 45 44 41 39 41 40 40 40 42 41 41 42 46 47 49 51 56 58 61 64 66
66 64 63 63 64 63 63 66 66 64 62 61 60 57 54 53 52 50 49 47 46 46 46 46 43 40 42 42 41 42 44 45 45 46 48 50 51 53 57 60 61 64 68
59 60 61 63 60 60 64 65 64 62 59 58 56 53 51 52 52 49 46 46 45 44 45 46 44 40 40 42 43 44 44 48 48 49 50 52 53 55 58 60 62 65 66
56 59 61 58 59 62 62 64 61 59 57 56 54 52 52 52 51 52 50 45 43 42 43 45 46 42 37 40 42 45 47 47 50 51 53 54 55 57 61 63 66 67 67
Wind_Direction
302 304 303 302 303 303 303 302 303 302 301 299 296 294 293 293 291 290 291 290 289 288 286 284 282 281 280 279 278 278 276 273 270 262 256 257 251 261 266 267 264 257 253
301 301 301 302 302 302 302 301 301 299 298 298 297 296 295 293 291 289 287 286 285 283 283 283 283 282 281 280 279 278 277 274 275 274 265 251 248 247 253 262 266 250 250
299 300 301 303 304 304 304 302 302 300 298 297 296 294 291 289 286 285 285 285 286 286 285 283 281 279 278 277 275 274 273 272 272 271 271 265 249 237 239 242 256 251 249
297 298 300 303 303 303 303 303 301 300 299 298 297 295 293 290 289 287 286 287 286 285 284 281 278 277 276 273 271 270 270 270 269 268 267 264 261 243 230 235 242 258 240
295 298 300 302 304 303 303 302 302 301 299 298 296 294 292 290 288 287 285 285 285 283 281 279 277 276 274 272 269 267 264 264 265 265 263 258 257 257 235 230 228 237 234
297 299 300 303 303 304 303 303 302 301 300 300 298 295 292 290 288 287 286 284 282 281 281 280 279 277 274 271 269 267 266 264 261 258 258 257 253 252 252 232 231 234 230
297 300 302 302 302 303 304 304 303 302 301 302 299 293 290 289 288 286 286 285 285 284 283 282 279 277 276 272 269 267 265 263 262 257 256 254 251 247 246 241 230 231 229
298 299 301 301 301 302 303 304 303 301 301 300 297 294 293 291 290 288 288 287 287 286 284 282 280 277 276 275 273 270 265 262 260 258 250 250 247 243 240 241 235 228 224
298 299 299 299 300 301 302 304 304 303 302 300 298 297 296 295 294 294 293 293 291 289 286 283 280 278 276 274 273 271 266 262 259 257 253 242 242 240 234 233 231 225 220
296 297 298 299 300 302 303 304 305 304 304 302 301 299 298 298 298 297 298 296 294 291 289 286 283 280 277 275 273 271 268 265 259 254 252 245 236 235 230 226 224 221 219
296 297 297 300 302 303 303 304 304 304 303 301 300 299 300 299 299 299 297 297 297 295 293 291 288 284 280 275 272 270 269 267 264 258 251 246 235 230 226 218 217 216 218
296 298 299 300 300 302 303 304 303 303 302 301 300 300 300 300 300 298 300 302 301 298 295 293 291 288 285 278 271 267 266 265 263 258 251 243 236 227 225 219 214 216 214
297 298 299 299 300 302 303 303 303 302 300 299 299 299 300 300 299 301 303 304 301 298 295 294 292 290 285 281 277 271 267 264 260 256 251 243 234 223 222 218 213 214 211
297 298 299 300 300 301 302 302 301 300 299 300 301 301 301 301 302 302 303 303 301 298 296 295 292 287 284 281 278 273 268 264 260 255 247 239 234 224 220 218 212 212 210
297 297 297 299 300 301 302 302 300 300 300 301 301 301 301 302 302 303 303 303 300 296 296 295 291 285 282 280 276 274 270 265 258 253 246 238 231 222 218 216 212 212 213
295 297 298 298 300 302 302 300 300 300 300 300 300 300 301 301 302 303 302 301 299 295 294 293 289 285 281 278 274 273 271 266 259 249 243 236 229 221 217 216 212 212 213
296 296 298 300 302 303 300 300 300 300 299 299 300 301 302 303 302 301 299 297 296 294 293 291 287 283 279 277 273 272 270 266 257 247 239 233 229 222 217 214 215 212 214
294 297 300 303 303 300 300 300 299 299 299 300 302 302 302 302 300 298 295 294 292 290 289 287 284 279 276 275 272 270 268 265 257 244 236 228 227 222 218 216 215 209 206
297 300 304 303 300 300 301 299 299 300 302 303 303 304 304 302 300 298 295 292 289 287 286 283 280 276 273 269 269 267 262 262 254 242 232 227 224 222 219 218 215 213 215
300 303 302 300 299 299 298 298 301 304 304 305 305 304 304 303 301 299 297 295 290 288 286 281 275 273 270 265 264 264 258 255 248 238 229 222 222 222 221 219 218 220 221
302 300 298 298 298 297 298 302 304 304 305 305 305 305 305 305 305 303 300 297 292 288 286 282 274 272 269 266 260 257 257 250 241 233 225 218 219 220 220 218 219 221 224
297 296 297 296 296 298 302 304 304 305 306 306 306 306 307 306 306 305 303 300 296 292 288 282 271 267 269 265 257 253 252 248 238 228 226 222 219 219 217 218 216 220 222
293 294 293 293 297 302 304 304 306 307 307 306 306 306 306 306 305 304 303 302 300 295 289 284 278 265 262 261 257 251 247 246 238 229 227 225 221 217 218 217 219 220 222
292 291 292 296 301 303 305 306 307 307 306 305 305 305 307 307 306 303 300 299 298 297 292 286 281 270 263 259 254 249 247 244 241 233 228 226 223 222 220 220 219 220 222
289 292 297 300 303 306 307 307 306 305 304 304 304 305 307 307 305 303 302 300 297 293 291 289 284 274 264 261 256 249 245 244 241 239 231 228 224 224 223 224 224 221 223
294 298 302 303 306 307 307 306 305 304 304 303 304 306 307 308 308 309 307 303 300 295 290 286 286 282 272 261 258 253 247 243 241 239 237 231 228 225 224 225 223 225 224
Height
10668 10665 10662 10659 10656 10652 10648 10643 10637 10633 10629 10624 10618 10612 10606 10602 10600 10596 10592 10589 10585 10584 10583 10581 10578 10577 10577 10574 10573 10577 10581 10582 10587 10594 10600 10609 10612 10614 10619 10620 10622 10627 10626
10655 10652 10648 10644 10642 10638 10635 10630 10626 10620 10614 10607 10601 10595 10586 10579 10574 10569 10566 10564 10561 10559 10556 10554 10551 10549 10548 10546 10548 10547 10551 10556 10555 10563 10575 10585 10593 10597 10600 10603 10608 10609 10610
10639 10637 10633 10630 10626 10622 10619 10615 10609 10603 10595 10588 10581 10575 10568 10561 10553 10546 10539 10533 10530 10525 10523 10522 10520 10518 10517 10517 10515 10518 10522 10526 10526 10531 10541 10556 10568 10571 10577 10579 10586 10591 10597
10623 10620 10617 10614 10609 10605 10600 10595 10589 10582 10574 10566 10558 10550 10542 10535 10528 10522 10514 10505 10499 10494 10491 10488 10485 10483 10481 10481 10482 10483 10488 10492 10499 10497 10508 10521 10533 10546 10554 10562 10564 10568 10579
10607 10604 10600 10595 10591 10585 10579 10573 10567 10559 10550 10542 10533 10523 10515 10509 10503 10496 10488 10481 10471 10461 10454 10448 10443 10440 10438 10438 10438 10442 10450 10455 10463 10466 10472 10483 10497 10508 10529 10538 10542 10546 10557
10589 10585 10580 10575 10569 10563 10556 10550 10543 10534 10523 10513 10504 10495 10487 10479 10471 10465 10456 10448 10438 10427 10415 10409 10404 10398 10393 10387 10393 10398 10403 10409 10420 10429 10434 10445 10460 10475 10487 10507 10516 10527 10535
10571 10565 10560 10553 10546 10540 10533 10525 10516 10507 10497 10486 10477 10468 10459 10452 10443 10433 10423 10413 10404 10393 10384 10373 10361 10354 10350 10349 10352 10356 10359 10364 10373 10388 10395 10404 10422 10436 10453 10469 10490 10497 10509
10551 10546 10539 10532 10525 10518 10510 10502 10492 10482 10473 10461 10449 10440 10431 10421 10410 10401 10391 10381 10371 10361 10350 10338 10329 10319 10317 10315 10317 10320 10322 10326 10332 10342 10359 10366 10379 10397 10415 10434 10449 10465 10480
10533 10527 10520 10512 10504 10496 10487 10476 10465 10455 10444 10433 10423 10411 10401 10390 10378 10367 10358 10348 10338 10329 10319 10310 10301 10295 10290 10285 10285 10284 10287 10295 10301 10308 10319 10335 10344 10358 10380 10398 10413 10437 10451
10514 10507 10499 10490 10481 10471 10461 10450 10437 10425 10414 10403 10393 10382 10370 10358 10346 10336 10328 10319 10309 10300 10292 10286 10278 10273 10264 10263 10263 10258 10257 10264 10272 10281 10287 10301 10312 10324 10343 10364 10382 10397 10426
10492 10483 10474 10465 10455 10445 10434 10423 10411 10398 10388 10377 10365 10354 10343 10332 10321 10312 10303 10294 10285 10276 10267 10261 10255 10250 10245 10243 10241 10238 10237 10239 10244 10253 10263 10272 10284 10297 10311 10330 10348 10370 10391
10468 10460 10451 10441 10430 10420 10409 10397 10384 10374 10362 10351 10339 10330 10320 10309 10300 10290 10281 10273 10263 10254 10248 10240 10234 10229 10226 10222 10221 10219 10220 10221 10225 10229 10238 10245 10255 10268 10281 10300 10322 10346 10365
10445 10437 10428 10417 10406 10397 10385 10373 10361 10349 10337 10327 10317 10307 10297 10289 10279 10269 10260 10253 10244 10236 10230 10223 10216 10211 10208 10204 10203 10202 10202 10204 10207 10211 10216 10223 10231 10244 10257 10276 10298 10320 10340
10422 10413 10404 10395 10385 10373 10361 10349 10338 10325 10313 10302 10293 10284 10276 10268 10259 10250 10243 10235 10228 10220 10213 10207 10201 10195 10191 10188 10187 10186 10185 10187 10190 10194 10198 10204 10213 10226 10239 10257 10278 10299 10318
10398 10390 10381 10372 10360 10348 10338 10326 10313 10302 10291 10281 10272 10264 10256 10247 10239 10231 10223 10216 10212 10204 10197 10190 10185 10181 10177 10175 10172 10170 10171 10172 10174 10178 10182 10188 10197 10206 10219 10237 10259 10278 10291
10376 10367 10358 10347 10336 10326 10314 10302 10291 10280 10271 10263 10254 10245 10236 10230 10221 10212 10204 10197 10193 10188 10183 10176 10170 10167 10163 10161 10160 10157 10157 10159 10161 10164 10169 10173 10181 10190 10204 10219 10235 10253 10268
10353 10343 10334 10324 10313 10302 10291 10280 10270 10261 10253 10245 10236 10227 10218 10210 10201 10193 10186 10179 10174 10169 10166 10160 10155 10153 10149 10147 10147 10145 10145 10147 10150 10152 10154 10161 10168 10179 10192 10202 10218 10242 10257
10331 10322 10313 10302 10290 10279 10269 10261 10252 10244 10235 10227 10218 10208 10198 10189 10181 10174 10168 10161 10155 10151 10149 10145 10140 10137 10135 10133 10133 10134 10134 10135 10138 10141 10144 10150 10157 10168 10179 10190 10204 10223 10228
10310 10301 10290 10279 10267 10258 10250 10242 10234 10226 10217 10208 10198 10188 10178 10169 10161 10155 10149 10144 10138 10133 10131 10130 10124 10122 10122 10120 10119 10121 10123 10124 10126 10129 10135 10140 10147 10155 10163 10177 10193 10206 10216
10288 10278 10268 10257 10249 10242 10234 10226 10218 10209 10198 10188 10179 10170 10160 10152 10143 10136 10130 10126 10120 10116 10113 10113 10110 10107 10107 10108 10106 10108 10111 10113 10116 10118 10124 10130 10136 10143 10151 10163 10176 10189 10200
10266 10258 10248 10241 10234 10226 10219 10210 10200 10191 10181 10172 10162 10152 10144 10136 10128 10121 10115 10110 10105 10100 10097 10096 10096 10093 10093 10094 10094 10094 10097 10102 10105 10108 10113 10119 10125 10132 10139 10149 10159 10169 10182
10247 10239 10232 10225 10218 10211 10202 10193 10184 10174 10165 10155 10146 10138 10130 10122 10115 10107 10101 10096 10091 10086 10083 10081 10081 10080 10078 10079 10081 10081 10082 10088 10093 10097 10101 10107 10113 10120 10127 10136 10144 10152 10162
10230 10224 10217 10211 10203 10194 10186 10176 10167 10158 10149 10140 10131 10123 10117 10109 10103 10095 10088 10082 10077 10073 10070 10067 10067 10066 10064 10064 10066 10068 10069 10073 10079 10084 10088 10094 10101 10108 10115 10122 10129 10138 10149
10216 10209 10203 10196 10188 10180 10170 10160 10151 10143 10134 10126 10118 10111 10103 10095 10088 10082 10075 10070 10065 10060 10055 10053 10051 10052 10052 10051 10050 10053 10055 10058 10063 10070 10076 10081 10088 10094 10100 10108 10116 10124 10132
10201 10196 10188 10181 10173 10165 10155 10145 10137 10129 10121 10113 10105 10097 10089 10082 10074 10068 10063 10056 10051 10047 10043 10037 10035 10035 10037 10038 10038 10037 10040 10044 10049 10054 10061 10066 10074 10080 10086 10094 10101 10109 10117
10188 10181 10173 10165 10157 10149 10140 10132 10123 10115 10107 10099 10091 10083 10076 10069 10061 10051 10043 10042 10038 10033 10028 10024 10021 10020 10022 10024 10024 10025 10025 10028 10034 10039 10044 10052 10059 10067 10072 10078 10087 10094 10102